Flag for Vietnam Weather past 2 weeks in Hanoi, Vietnam

Now
59 °F

Clear.


Feels Like: 58 °F
Forecast: 48 / 72 °F
Wind: 6 mph from West

Location: Ha Noi Airport

Current Time: Dec 19, 2014 at 9:27:32 AM

Latest Report: Dec 19, 2014 at 9:00 AM


Visibility: 3 mi

Pressure: 30.36 "Hg

Humidity: 68%

Dew point: 48 °F

Location of HanoiLocation

Historic Weather in Hanoi — Graph

°F

Hanoi temperature yesterday

Maximum temperature yesterday: 66 °F (at 12:00 PM)
Minimum temperature yesterday: 48 °F (at 4:30 AM)
Average temperature yesterday: 57 °F

Past Weeks' High & Low Weather Summary

 TemperatureHumidityPressure
High72 °F (Dec 8, 1:30 PM)100% (Dec 7, 1:30 AM)30.45 "Hg (Dec 7, 1:30 AM)
Low48 °F (Dec 18, 4:30 AM)19% (Dec 18, 2:00 PM)29.98 "Hg (Dec 6, 3:30 PM)
Average62 °F64%30.19 "Hg
* Reported Dec 4 8:00 AM — Dec 19 8:30 AM, Hanoi, Weather by CustomWeather, © 2014

Note: Actual official high and low records may vary slightly from our data, if they occured in-between our weather recording intervals... More about our weather records

Advertising

Hanoi weather history for previous 24 hours

 ConditionsComfort  
Time TempWeatherWind HumidityBarometerVisibility
8:30 AM
Dec 19
55 °FClear.5 mph77%30.33 "Hg3 mi
8:00 AM52 °FClear.5 mph82%30.33 "Hg4 mi
7:30 AM50 °FClear.6 mph88%30.30 "Hg3 mi
7:00 AM48 °FClear.5 mph87%30.30 "Hg3 mi
6:30 AM48 °FClear.3 mph82%30.30 "Hg4 mi
6:00 AM50 °FClear.2 mph76%30.27 "Hg10 mi
5:30 AM50 °FClear.1 mph71%30.27 "Hg10 mi
5:00 AM50 °FClear.1 mph76%30.27 "Hg6 mi
4:30 AM48 °FClear.2 mph82%30.24 "Hg5 mi
4:00 AM52 °FClear.2 mph67%30.24 "Hg10 mi
3:30 AM50 °FClear.1 mph76%30.24 "Hg6 mi
3:00 AM52 °FClear.2 mph77%30.24 "Hg5 mi
2:30 AM52 °FClear.1 mph77%30.27 "Hg5 mi
2:00 AM54 °FClear.3 mph67%30.27 "Hg6 mi
1:30 AM54 °FClear.5 mph67%30.27 "Hg6 mi
1:00 AM54 °FClear.3 mph67%30.27 "Hg5 mi
12:30 AM54 °FClear.2 mph67%30.27 "Hg4 mi
12:00 AM54 °FClear.1 mph67%30.30 "Hg4 mi
11:30 PM
Dec 18
54 °FClear.2 mph67%30.30 "Hg6 mi
11:00 PM55 °FClear.1 mph67%30.30 "Hg6 mi
10:30 PM55 °FClear.3 mph63%30.30 "Hg6 mi
10:00 PM55 °FClear.1 mph63%30.30 "Hg6 mi
9:30 PM54 °FClear.2 mph67%30.30 "Hg4 mi
9:00 PM55 °FClear.1 mph63%30.30 "Hg5 mi
8:30 PM54 °FClear.3 mph67%30.27 "Hg5 mi
8:00 PM55 °FClear.3 mph63%30.27 "Hg3 mi
7:30 PM57 °FClear.3 mph55%30.27 "Hg5 mi
7:00 PM57 °FClear.2 mph55%30.24 "Hg3 mi
6:00 PM63 °FClear.3 mph32%30.24 "Hg10 mi
5:30 PM63 °FClear.5 mph30%30.21 "Hg10 mi
5:00 PM64 °FSunny.3 mph26%30.21 "Hg10 mi
4:30 PM64 °FPassing clouds.5 mph22%30.21 "HgN/A
4:00 PM66 °FSunny.6 mph22%30.21 "Hg10 mi
3:30 PM66 °FPassing clouds.5 mph26%30.21 "HgN/A
3:00 PM66 °FPassing clouds.5 mph24%30.21 "HgN/A
2:30 PM66 °FPassing clouds.8 mph22%30.21 "HgN/A
2:00 PM66 °FPassing clouds.5 mph19%30.21 "HgN/A
1:30 PM66 °FSunny.5 mph24%30.24 "Hg10 mi
1:00 PM66 °FSunny.5 mph26%30.24 "Hg10 mi
12:30 PM66 °FPassing clouds.6 mph28%30.27 "HgN/A
12:00 PM66 °FPassing clouds.5 mph24%30.30 "HgN/A
11:00 AM63 °FPassing clouds.7 mph32%30.33 "HgN/A
10:30 AM63 °FPassing clouds.9 mph30%30.33 "HgN/A
10:00 AM61 °FPassing clouds.7 mph29%30.36 "HgN/A
9:30 AM61 °FPassing clouds.9 mph31%30.36 "HgN/A
9:00 AM59 °FPassing clouds.7 mph34%30.36 "HgN/A
Weather by CustomWeather, © 2014

See weather overviewHow to use our weather pages